DateTimeUTC,F1_A11,F1_S11,BsB_S11,BsG_S11,BsR_S11,BbsB_S11,BbsG_S11,BbsR_S11,BaB_A11,BaG_A11,BaR_A11,Tu_S11,T_S11,Uu_S11,U_S11,P_S11,T1_A11
2021-07-11T22:00:00Z,00000200,20000000,,,,,,,0000.03,0000.03,0000.04,19.1,25.6,12.6,08.5,0674.3,31.0
2021-07-11T22:01:00Z,00000200,20000000,,,,,,,0000.15,0000.08,-000.34,19.1,25.6,12.4,08.3,0674.3,31.0
2021-07-11T22:02:00Z,00000200,20000000,,,,,,,0000.07,0000.15,0000.17,19.1,25.6,12.3,08.3,0674.3,31.0
2021-07-11T22:03:00Z,00000200,60000000,,,,,,,-000.30,-000.10,0000.00,19.1,25.6,12.3,08.3,0674.3,31.0
2021-07-11T22:04:00Z,00000200,40000000,0000.77,0000.08,0000.18,-000.15,0000.02,0000.10,0000.23,-000.05,-000.10,19.2,25.4,12.3,08.4,0675.2,31.0
2021-07-11T22:05:00Z,00000200,00000000,0001.09,0000.48,0000.49,-000.53,0000.05,-000.06,0000.12,0000.35,0000.26,19.2,25.4,12.4,08.5,0675.3,31.0
2021-07-11T22:06:00Z,00000200,00000000,0000.75,0000.66,-000.01,-000.08,-000.22,-000.04,0000.27,-000.13,-000.01,19.2,25.3,12.5,08.6,0675.3,31.0
2021-07-11T22:07:00Z,00000200,00000000,0002.15,0000.58,0000.89,0000.50,0000.21,0000.35,-000.20,0000.26,0000.04,19.2,25.3,12.4,08.5,0675.3,31.0
2021-07-11T22:08:00Z,00000200,00000000,0001.63,0000.38,0000.24,-000.50,-000.16,-000.04,0000.08,-000.11,0000.32,19.2,25.3,12.5,08.6,0675.3,31.0
2021-07-11T22:09:00Z,00000200,00000000,0001.09,0000.59,0000.44,0000.89,0000.21,0000.19,0000.08,-000.04,-000.02,19.2,25.3,12.4,08.6,0675.3,31.0
2021-07-11T22:10:00Z,00000200,00000000,0001.50,0000.57,0000.41,-000.06,0000.08,-000.10,-000.15,0000.08,0000.03,19.2,25.3,12.4,08.5,0675.3,31.0
2021-07-11T22:11:00Z,00000200,00000000,0001.65,0000.19,0000.24,0000.13,0000.11,0000.22,0000.11,-000.14,-000.09,19.2,25.3,12.4,08.5,0675.3,31.1
2021-07-11T22:12:00Z,00000200,00000000,0001.54,0000.67,0000.34,0000.53,0000.21,-000.15,-000.02,-000.16,-000.18,19.2,25.3,12.5,08.6,0675.3,31.0
2021-07-11T22:13:00Z,00000200,00000000,0000.74,0000.84,0000.38,-000.05,-000.02,-000.02,0000.31,0000.32,0000.24,19.2,25.3,12.3,08.5,0675.3,31.0
2021-07-11T22:14:00Z,00000200,00000000,0001.35,0000.54,0000.60,0000.52,0000.21,0000.40,-000.39,0000.11,-000.10,19.2,25.3,12.4,08.6,0675.3,31.0
2021-07-11T22:15:00Z,00000200,00000000,0001.08,0000.73,0000.66,0000.35,-000.00,0000.15,0000.48,0000.54,0000.08,19.2,25.3,12.3,08.5,0675.3,31.1
2021-07-11T22:16:00Z,00000200,00000000,0001.52,0000.54,0000.55,0000.67,-000.04,-000.10,-000.02,-000.37,0000.20,19.2,25.3,12.3,08.5,0675.3,31.0
2021-07-11T22:17:00Z,00000200,00000000,0001.32,0000.27,0000.28,0000.30,0000.26,0000.23,-000.09,0000.14,-000.25,19.2,25.3,12.3,08.5,0675.3,31.0
2021-07-11T22:18:00Z,00000200,00000000,0000.98,0000.24,0000.14,0000.10,0000.05,0000.13,0000.09,-000.17,0000.41,19.2,25.3,12.2,08.4,0675.3,31.1
2021-07-11T22:19:00Z,00000200,00000000,0000.82,0000.36,0000.43,0000.19,0000.30,0000.02,-000.01,-000.09,0000.01,19.2,25.3,12.3,08.5,0675.3,31.0
2021-07-11T22:20:00Z,00000200,00000000,0001.34,0000.41,0000.16,0000.34,-000.11,0000.16,0000.16,0000.38,0000.02,19.2,25.3,12.2,08.5,0675.3,31.0
2021-07-11T22:21:00Z,00000200,00000000,0000.60,0000.47,0000.31,0000.43,0000.05,-000.12,0000.14,0000.01,-000.14,19.2,25.3,12.2,08.4,0675.3,31.0
2021-07-11T22:22:00Z,00000200,00000000,0000.43,0000.56,0000.49,-000.11,0000.04,0000.16,0000.14,-000.03,-000.01,19.2,25.3,12.2,08.5,0675.3,31.0
2021-07-11T22:23:00Z,00000200,00000000,0001.33,0000.52,0000.31,0000.39,0000.43,0000.09,0000.00,0000.00,0000.09,19.2,25.3,12.2,08.5,0675.3,31.0
2021-07-11T22:24:00Z,00000200,00000000,0000.95,0000.95,0000.39,0000.47,0000.24,0000.34,0000.16,0000.15,0000.24,19.2,25.3,12.3,08.5,0675.3,31.0
2021-07-11T22:25:00Z,00000200,00000000,0001.34,0000.30,0000.49,-000.30,-000.11,0000.03,-000.27,-000.17,-000.15,19.2,25.3,12.3,08.5,0675.3,31.0
2021-07-11T22:26:00Z,00000200,00000000,0001.77,0000.33,0000.10,0000.28,-000.12,0000.17,-000.09,0000.18,0000.24,19.2,25.3,12.2,08.5,0675.3,31.1
2021-07-11T22:27:00Z,00000200,00000000,0001.25,0000.46,0000.24,0000.32,-000.13,-000.10,0000.20,0000.18,-000.07,19.2,25.3,12.3,08.5,0675.3,31.0
2021-07-11T22:28:00Z,00000200,00000000,0001.26,0000.15,0000.45,0000.24,0000.27,-000.16,0000.20,-000.08,0000.42,19.2,25.3,12.3,08.5,0675.3,31.1
2021-07-11T22:29:00Z,00000200,00000000,0001.32,0000.63,0000.30,0000.33,0000.07,-000.17,0000.11,0000.08,-000.45,19.2,25.3,12.4,08.6,0675.3,31.0
2021-07-11T22:30:00Z,00000200,00000000,0001.56,0000.71,0000.52,0000.35,0000.13,0000.14,-000.09,0000.12,0000.22,19.2,25.3,12.3,08.5,0675.3,31.0
2021-07-11T22:31:00Z,00000200,00000000,0002.22,0000.03,0000.37,-000.51,0000.28,-000.07,-000.02,-000.05,0000.06,19.2,25.3,12.3,08.5,0675.3,31.0
2021-07-11T22:32:00Z,00000200,00000000,0002.13,0000.34,0000.28,0000.02,0000.03,-000.10,0000.02,0000.22,-000.08,19.2,25.3,12.3,08.5,0675.3,31.0
2021-07-11T22:33:00Z,00000200,00000000,0001.87,0000.73,0000.53,0000.44,-000.04,0000.20,0000.15,-000.22,-000.16,19.2,25.3,12.3,08.5,0675.4,31.0
2021-07-11T22:34:00Z,00000200,00000000,0001.59,0000.79,0000.62,-000.01,-000.07,0000.77,-000.15,-000.08,0000.21,19.2,25.3,12.3,08.5,0675.4,31.0
2021-07-11T22:35:00Z,00000200,00000000,0002.01,0000.54,0000.63,0000.18,-000.20,0000.07,0000.13,0000.15,-000.15,19.2,25.3,12.2,08.4,0675.4,31.0
2021-07-11T22:36:00Z,00000200,00000000,0000.82,0000.75,0000.48,0000.12,0000.35,-000.10,0000.08,-000.29,0000.17,19.2,25.2,12.0,08.3,0675.3,31.0
2021-07-11T22:37:00Z,00000200,00000000,0001.64,0000.39,0000.62,0000.06,0000.14,0000.20,-000.43,0000.20,-000.08,19.2,25.2,11.8,08.2,0675.3,31.0
2021-07-11T22:38:00Z,00000200,00000000,0001.10,0000.45,0000.18,0000.27,0000.24,-000.20,-000.28,-000.51,-000.25,19.2,25.2,11.7,08.1,0675.3,31.0
2021-07-11T22:39:00Z,00000200,00000000,0001.71,0000.52,0000.38,0000.40,0000.04,0000.13,0000.49,0000.66,0000.25,19.2,25.2,11.3,07.9,0675.3,31.0
2021-07-11T22:40:00Z,00000200,00000000,0001.57,0000.50,0000.11,0000.13,-000.04,0000.06,0000.20,-000.13,-000.01,19.2,25.2,11.8,08.2,0675.4,31.0
2021-07-11T22:41:00Z,00000200,00000000,0002.23,0000.74,0000.86,0000.15,0000.09,0000.24,0000.04,-000.02,0000.29,19.2,25.2,11.9,08.2,0675.4,31.1
2021-07-11T22:42:00Z,00000200,00000000,0001.00,0000.44,0000.55,-000.04,0000.02,0000.06,0000.09,0000.18,-000.07,19.2,25.2,11.7,08.1,0675.4,31.0
2021-07-11T22:43:00Z,00000200,00000000,0001.49,0000.46,0000.11,0000.19,-000.07,0000.39,0000.06,0000.28,-000.01,19.2,25.2,11.7,08.1,0675.4,31.0
2021-07-11T22:44:00Z,00000200,00000000,0001.23,0000.39,0000.10,0000.12,0000.07,0000.09,0000.13,-000.19,0000.11,19.2,25.2,11.7,08.1,0675.4,31.0
2021-07-11T22:45:00Z,00000200,00000000,0000.76,0000.45,0000.53,-000.06,0000.06,-000.10,0000.23,0000.16,0000.42,19.2,25.2,11.7,08.1,0675.3,31.0
2021-07-11T22:46:00Z,00000200,00000000,0001.23,0000.50,0000.28,0000.16,0000.33,0000.05,-000.30,-000.00,-000.21,19.2,25.2,11.8,08.2,0675.3,31.0
2021-07-11T22:47:00Z,00000200,00000000,0001.33,0000.52,0000.31,0000.31,0000.10,-000.01,0000.10,-000.09,0000.01,19.2,25.2,11.8,08.2,0675.3,31.0
2021-07-11T22:48:00Z,00000200,00000000,0001.15,0000.53,0000.69,0000.17,-000.06,0000.15,0000.07,0000.39,0000.24,19.2,25.2,11.7,08.1,0675.3,31.0
2021-07-11T22:49:00Z,00000200,00000000,0001.03,0000.59,0000.38,0000.41,0000.14,-000.35,0000.37,-000.16,-000.09,19.2,25.2,11.8,08.2,0675.3,31.1
2021-07-11T22:50:00Z,00000200,00000000,0002.14,0000.50,0000.57,0000.17,0000.04,-000.21,-000.08,0000.15,-000.03,19.2,25.2,11.8,08.2,0675.3,31.0
2021-07-11T22:51:00Z,00000200,00000000,0001.05,0000.24,0000.29,0000.41,0000.10,-000.39,0000.13,0000.19,0000.32,19.2,25.2,11.8,08.2,0675.3,31.0
2021-07-11T22:52:00Z,00000200,00000000,0001.64,0000.35,0000.39,0000.27,0000.33,-000.02,0000.04,0000.07,-000.32,19.2,25.2,11.7,08.1,0675.2,31.0
2021-07-11T22:53:00Z,00000200,00000000,0001.62,0000.41,0000.60,-000.04,-000.27,0000.05,-000.05,-000.08,0000.39,19.2,25.2,11.7,08.1,0675.2,31.0
2021-07-11T22:54:00Z,00000200,00000000,0001.60,0000.56,0000.50,0000.78,-000.03,-000.02,0000.29,0000.20,-000.20,19.2,25.2,11.8,08.2,0675.2,31.0
2021-07-11T22:55:00Z,00000200,00000000,0001.51,0000.62,0000.18,0000.53,0000.31,0000.18,0000.02,0000.23,-000.05,19.2,25.2,11.8,08.2,0675.2,31.0
2021-07-11T22:56:00Z,00000200,00000000,0001.07,0000.36,0000.60,0000.47,0000.32,0000.06,-000.02,-000.15,-000.05,19.2,25.2,11.7,08.1,0675.2,31.0
2021-07-11T22:57:00Z,00000200,40000000,,,,,,,0000.03,0000.34,0000.42,19.2,25.3,11.3,07.8,0675.2,31.0
2021-07-11T22:58:00Z,00000200,60000000,,,,,,,0000.22,-000.45,-000.26,19.0,25.3,11.9,08.1,0674.3,31.0
2021-07-11T22:59:00Z,00000200,20000000,,,,,,,-000.26,0000.10,0000.24,19.0,25.4,11.8,08.0,0674.3,31.0
